Overview Statistics Trail Chart Weather Telemetry Raw packets
 

This is the latest recevied weather packets stored in our database for station/object SV9TNF-54. If no packets are shown the sender has not sent any weather packets the latest 10 day(s).

<< 73 74 75 76 77 78 79 >>
Time Temp. Humidity Pressure Rain* Wind** Luminosity Snow
1788106044 31.67° C 33% 1013.6 hPa 0 mm 25.48 m/s, 360° - -
1788105744 31.67° C 33% 1013.6 hPa 0 mm 25.48 m/s, 360° - -
1788105443 32.22° C 33% 1013.6 hPa 0 mm 29.06 m/s, 1° - -
1788105143 32.22° C 33% 1013.6 hPa 0 mm 29.06 m/s, 1° - -
1788104843 32.22° C 33% 1013.6 hPa 0 mm 29.06 m/s, 1° - -
1788104543 32.78° C 32% 1013.6 hPa 0 mm 29.06 m/s, 23° - -
1788104243 32.78° C 32% 1013.6 hPa 0 mm 29.06 m/s, 23° - -
1788103943 32.78° C 32% 1013.6 hPa 0 mm 29.06 m/s, 23° - -
1788103643 32.78° C 32% 1013.6 hPa 0 mm 29.06 m/s, 23° - -
1788103343 32.78° C 32% 1013.6 hPa 0 mm 29.06 m/s, 23° - -
1788103043 32.78° C 32% 1013.6 hPa 0 mm 29.06 m/s, 23° - -
1788102742 33.33° C 31% 1013.9 hPa 0 mm 27.27 m/s, 8° - -
1788102442 33.33° C 31% 1013.9 hPa 0 mm 27.27 m/s, 8° - -
1788102143 33.33° C 31% 1013.9 hPa 0 mm 27.27 m/s, 8° - -
1788101843 34.44° C 31% 1013.9 hPa 0 mm 14.31 m/s, 21° - -
1788101542 34.44° C 31% 1013.9 hPa 0 mm 14.31 m/s, 21° - -
1788101242 34.44° C 31% 1013.9 hPa 0 mm 14.31 m/s, 21° - -
1788100942 34.44° C 31% 1013.9 hPa 0 mm 14.31 m/s, 21° - -
1788100642 34.44° C 31% 1013.9 hPa 0 mm 14.31 m/s, 21° - -
1788100342 34.44° C 31% 1013.9 hPa 0 mm 14.31 m/s, 21° - -
1788100042 34.44° C 30% 1013.9 hPa 0 mm 19.22 m/s, 32° - -
1788099742 34.44° C 30% 1013.9 hPa 0 mm 19.22 m/s, 32° - -
1788099442 34.44° C 30% 1013.9 hPa 0 mm 19.22 m/s, 32° - -
1788099141 34.44° C 30% 1013.9 hPa 0 mm 9.83 m/s, 6° - -
1788098841 34.44° C 30% 1013.9 hPa 0 mm 9.83 m/s, 6° - -

* Rain latest hour (hover to see other rain measurements)
** Current wind speed in m/s (hover to see current wind gust speed)